FW1683 Weather Reports


Display with metric or nautical units.
time (UTC)temp
F
wind
direction
speed
MPH
gust
MPH
rain 1hr
in
rain 24hr
in
rain mn
in
humidity
%
barometer
mb
20260510115010 76 147 8.0 12.0 0.00 0.00 0.00 49 1012.3
20260510114007 75 196 6.0 9.0 0.00 0.00 0.00 47 1012.4
20260510113019 76 159 7.0 11.0 0.00 0.00 0.00 47 1012.5
20260510112007 75 133 5.0 9.0 0.00 0.00 0.00 50 1012.6
20260510111007 75 193 6.0 11.0 0.00 0.00 0.00 52 1012.8
20260510110026 74 199 7.0 12.0 0.00 0.00 0.00 48 1012.9
20260510103016 73 215 6.0 10.0 0.00 0.00 0.00 47 1013.3
20260510102007 73 229 3.0 6.0 0.00 0.00 0.00 48 1013.3
20260510101007 72 228 5.0 9.0 0.00 0.00 0.00 49 1013.4
20260510100012 72 237 6.0 10.0 0.00 0.00 0.00 51 1013.5
20260510094007 71 228 7.0 11.0 0.00 0.00 0.00 54 1013.7
20260510093011 70 247 5.0 9.0 0.00 0.00 0.00 54 1013.8
20260510092006 69 233 7.0 11.0 0.00 0.00 0.00 57 1013.8
20260510091007 70 271 6.0 9.0 0.00 0.00 0.00 55 1013.8
20260510085007 72 262 3.0 7.0 0.00 0.00 0.00 56 1013.9
20260510084008 67 264 4.0 7.0 0.00 0.00 0.00 64 1014.0
20260510083022 66 292 3.0 5.0 0.00 0.00 0.00 67 1014.1
20260509221008 62 287 3.0 4.0 0.00 0.00 0.00 90 1013.9
20260509220011 62 256 4.0 6.0 0.00 0.00 0.61 90 1014.3
20260509214009 61 260 2.0 4.0 0.00 0.00 0.61 89 1014.3
20260509213012 62 291 1.0 2.0 0.00 0.00 0.61 89 1013.9
20260509212008 62 42 0.0 2.0 0.00 0.00 0.61 89 1013.7
20260509210010 61 91 1.0 2.0 0.00 0.00 0.61 89 1013.4
20260509205010 61 132 1.0 2.0 0.00 0.00 0.61 88 1013.5
20260509204020 62 225 0.0 1.0 0.00 0.00 0.61 88 1013.6
20260509203030 62 224 1.0 2.0 0.00 0.00 0.61 88 1013.5
20260509202008 62 101 0.0 2.0 0.00 0.00 0.61 88 1013.5
20260509200010 62 156 1.0 2.0 0.00 0.00 0.61 86 1013.1
20260509195008 62 113 2.0 4.0 0.00 0.00 0.61 86 1013.0
20260509194010 62 218 1.0 3.0 0.00 0.00 0.61 85 1012.8
20260509193009 63 248 1.0 3.0 0.00 0.00 0.61 85 1012.8
20260509192009 63 225 2.0 3.0 0.00 0.00 0.61 84 1012.7
20260509191011 63 149 1.0 3.0 0.00 0.00 0.61 82 1012.5
20260509190024 63 144 2.0 4.0 0.00 0.00 0.61 81 1012.2
20260509185009 63 133 3.0 5.0 0.00 0.00 0.61 80 1012.1
20260509184010 63 111 4.0 7.0 0.00 0.00 0.61 80 1012.0
20260509183021 63 103 5.0 8.0 0.00 0.00 0.61 81 1011.6
20260509182010 64 114 4.0 7.0 0.00 0.00 0.61 80 1011.6
20260509181024 64 115 4.0 7.0 0.00 0.00 0.61 80 1011.7
20260509180008 64 127 8.0 11.0 0.00 0.00 0.61 79 1011.5
20260509175009 65 128 7.0 11.0 0.00 0.00 0.61 76 1011.5
20260509174011 66 134 6.0 10.0 0.00 0.00 0.61 72 1011.3
20260509173008 66 126 7.0 10.0 0.00 0.00 0.61 70 1011.1
20260509172008 66 108 6.0 11.0 0.00 0.00 0.61 68 1011.0
20260509171009 68 97 5.0 7.0 0.00 0.00 0.61 66 1010.9
20260509170026 68 90 6.0 9.0 0.00 0.00 0.61 66 1010.8
20260509165008 69 77 5.0 9.0 0.00 0.00 0.61 66 1010.8
20260509164007 69 83 6.0 9.0 0.00 0.00 0.61 68 1010.7
20260509163011 69 56 6.0 10.0 0.00 0.00 0.61 68 1010.8
20260509161008 67 57 5.0 10.0 0.00 0.00 0.61 73 1010.9
20260509160011 68 86 5.0 8.0 0.00 0.00 0.61 72 1011.0
20260509155009 69 62 5.0 9.0 0.00 0.00 0.61 70 1010.9
20260509154008 67 69 6.0 10.0 0.00 0.00 0.61 72 1011.1
20260509153008 67 58 6.0 10.0 0.00 0.00 0.61 72 1011.1
20260509152008 67 23 7.0 11.0 0.00 0.00 0.61 71 1011.2
20260509150025 68 22 6.0 11.0 0.00 0.00 0.61 74 1011.1
20260509145008 68 34 5.0 9.0 0.00 0.00 0.61 73 1011.1
20260509143020 67 26 5.0 8.0 0.00 0.00 0.61 76 1011.2
20260509142007 67 4 6.0 10.0 0.00 0.00 0.61 75 1011.3
20260509141007 67 12 3.0 5.0 0.00 0.00 0.61 78 1011.3
20260509140024 66 0 3.0 7.0 0.00 0.00 0.61 79 1011.2
20260509135007 65 28 4.0 8.0 0.00 0.00 0.61 82 1011.2
20260509134009 65 357 2.0 5.0 0.00 0.00 0.61 86 1011.2
20260509133008 63 32 1.0 3.0 0.01 0.00 0.61 88 1011.4
20260509132007 62 61 6.0 11.0 0.02 0.00 0.61 90 1010.8
20260509131009 62 43 7.0 11.0 0.04 0.00 0.61 91 1010.4
20260509130011 62 33 6.0 9.0 0.05 0.00 0.61 92 1010.8
20260509125009 62 27 4.0 7.0 0.06 0.00 0.61 93 1011.4
20260509124009 62 352 3.0 5.0 0.08 0.00 0.61 93 1011.7
20260509123007 61 294 3.0 5.0 0.09 0.00 0.60 93 1012.2
20260509121007 60 271 5.0 7.0 0.09 0.00 0.58 93 1012.4